Terminal Aerodrome Forecast
Issued by NWS

Home | Current Version | Previous Version | Graphics & Text | Print | Product List | Glossary On
Versions: 1 2 3 4 5 6 7 8 9 10 11 12 13 14 15 16 17 18 19 20 21 22 23 24 25 26 27 28 29 30 31 32 33 34 35 36 37 38 39 40 41 42 43 44 45 46 47 48 49 50
000
FTUS43 KLOT 191900 AAA
TAFGYY
TAF AMD
KGYY 191947Z 1920/2018 25013G21KT P6SM VCSH SCT035 BKN250
     FM192200 25012G20KT P6SM SCT035
     FM200100 27007KT P6SM FEW040
     FM200800 28003KT 4SM BR SCT250
     FM201400 28009KT P6SM SCT250=

USA.gov is the U.S. government's official web portal to all federal, state and local government web resources and services.